Regional Weather Roundup
Issued by NWS Charleston, SC

Current Version | Previous Version | Graphics & Text | Print | Product List | Glossary On
Versions: 1 2 3 4 5 6 7 8 9 10 11 12 13 14 15 16 17 18 19 20 21 22 23 24 25 26 27 28 29 30 31 32 33 34 35 36 37 38 39 40 41 42 43 44 45 46 47 48 49 50
324 ASUS42 KCHS 171812 RWRCHS REGIONAL WEATHER ROUNDUP NATIONAL WEATHER SERVICE CHARLESTON SC 100 PM EST TUE JAN 17 2017 NOTE: "FAIR" INDICATES FEW OR NO CLOUDS BELOW 12,000 FEET WITH NO SIGNIFICANT WEATHER AND/OR OBSTRUCTIONS TO VISIBILITY. NOT ALL STATIONS ARE QUALITY CONTROLLED. USE DATA WITH CAUTION... ESPECIALLY DEWPOINT OBSERVATIONS. SCZ027-030-031-034>040-042>050-171900- ...SOUTHEAST SOUTH CAROLINA... CITY SKY/WX TMP DP RH WIND PRES REMARKS N CHARLESTON MOSUNNY 74 60 61 W7 30.22F 6HR MIN TEMP: 54; 6HR MAX TEMP: 74; WATERFRONT PRK N/A 72 63 73 SW5 30.22F MOUNT PLEASANT FAIR 72 63 73 SW8 30.22F JOHNS ISLAND FAIR 75 63 64 W8G15 30.23F PINOPOLIS N/A 55 55 100 CALM 30.16F MONCKS CORNER FAIR 64 63 94 CALM 30.23F SUMMERVILLE FAIR 66 66 100 W5 30.24F BEAUFORT MCAS MOSUNNY 71 61 70 VRB5 30.23F 6HR MIN TEMP: 57; 6HR MAX TEMP: 72; BEAUFORT ARPT FAIR 70 61 73 SW3 30.23F HILTON HEAD IS MOSUNNY 77 61 57 NE5 30.25F WALTERBORO MOCLDY 64 N/A N/A CALM 30.24F ALLENDALE FAIR 70 59 68 S7 30.21F ...SOUTHERN MIDLANDS AND PEE DEE... CITY SKY/WX TMP DP RH WIND PRES REMARKS GEORGETOWN FAIR 70 59 68 W9 30.23F KINGSTREE CLOUDY 59 55 88 SW6 30.24F ORANGEBURG MOSUNNY 68 60 75 S8 30.22F 6HR MIN TEMP: 56; 6HR MAX TEMP: 68; BARNWELL FAIR 73 59 60 VRB7G13 30.21F AIKEN FAIR 70 55 60 S10 30.23F MANNING CLOUDY 59 55 88 S5 30.23F COLUMBIA PTSUNNY 71 57 61 S10 30.18F 6HR MIN TEMP: 54; 6HR MAX TEMP: 72; SUMTER NOT AVBL FLORENCE CLOUDY 61 58 90 S7 30.21F 6HR MIN TEMP: 52; 6HR MAX TEMP: 61; MYRTLE BEACH MOSUNNY 68 57 68 W8 30.24F N MYRTLE BEACH PTSUNNY 67 58 72 W6 30.21F 6HR MIN TEMP: 50; 6HR MAX TEMP: 67; $$ GAZ063-065-086>088-099>101-113>116-118-119-134>141-150-171900- ...SOUTHEAST GEORGIA... CITY SKY/WX TMP DP RH WIND PRES REMARKS SAVANNAH ARPT MOSUNNY 73 59 61 SW7 30.24F 6HR MIN TEMP: 57; 6HR MAX TEMP: 73; HUNTER AAF NOT AVBL FORT STEWART NOT AVBL STATESBORO SUNNY 75 61 62 SW8 30.22F SYLVANIA CLEAR N/A N/A N/A SW6 30.23F CLAXTON FAIR 74 74 100 S8 30.23F ...CSRA...CENTRAL AND FAR SOUTHEAST GEORGIA... CITY SKY/WX TMP DP RH WIND PRES REMARKS THOMSON SUNNY 74 59 59 SW9G17 30.24F AUGUSTA-BUSH SUNNY 77 56 48 SW9 30.19F 6HR MIN TEMP: 60; 6HR MAX TEMP: 77; AUGUSTA-DANIEL SUNNY 74 53 48 SW10 30.20F SWAINSBORO FAIR 73 57 56 W9 30.21F VIDALIA MOSUNNY 75 63 64 SW7 30.22F EASTMAN FAIR 77 48 35 S12 30.23F HAZLEHURST FAIR 77 62 61 SW8 30.21F ALMA MOSUNNY 76 60 57 SW9 30.22F 6HR MIN TEMP: 58; 6HR MAX TEMP: 76; WAYCROSS MOSUNNY 79 64 60 SW8 30.23F JESUP FAIR 75 59 57 W5 30.23F BAXLEY FAIR 77 63 61 SW6 30.22F BRUNSWICK MOSUNNY 75 64 69 SW8 30.24F SAINT SIMONS SUNNY 73 62 68 SW5 30.23F 6HR MIN TEMP: 55; 6HR MAX TEMP: 73; $$ SCZ027-028-034-036>038-045-046-048>050-GAZ119-141-171900- ...LAKE AND SUPPLEMENTAL COASTAL OBSERVATIONS... STATION/POSITION TIME TEMP WIND PRES WAVE SWELL AIR SEA DIR/SP/G HT/PER HT/PER/DIR (UTC) (F) (DEG/KT/KT) (MB) (FT/S) (FT/S/D) WINYAH BAY 1645 63 290/ 3 1025.0 LAKE MURRAY 1720 62 190/ 3/ 3 1022.7 ACE BASIN NERRS 1645 68 330/ 1 1025.0 FORT PULASKI 1742 63 56 260/ 2/ 4 1024.4F SAPELO ISLAND 1700 63 CALM 1025.0 $$ ANZ835-935-AMZ111-154-330-350-352-354-370-450-454-472-171900- ...C-MAN AND BUOY OBSERVATIONS... STATION/POSITION TIME TEMP WIND PRES WAVE SWELL AIR SEA DIR/SP/G HT/PER HT/PER/DIR (UTC) (F) (DEG/KT/KT) (MB) (FT/S) (FT/S/D) BUOY 41004 1650 69 71 300/ 4/ 4 1024.2 2/ 9 2/ 90/ 9 BUOY 41008 1650 59 60 350/ 4/ 4 1024.6 3/ 8 2/110/ 8 FOLLY BEACH CMAN 1700 61 130/ 2/ 2 1025.1F CAPERS NEARSHORE 1708 56 54 160/ 2/ 6 1024.3F FRIPP NEARSHORE 1708 56 56 50/ 4/ 4 1024.3F STATION/POSITION TIME TEMP WIND PRES WAVE SWELL AIR SEA DIR/SP/G HT/PER HT/PER/DIR (UTC) (F) (DEG/KT/KT) (MB) (FT/S) (FT/S/D) 5E ST. MARYS GA 1730 62 N/A 2/11 2/ 90/11 FRYING PAN BUOY 1750 72 73 240/ 10/ 14 1022.9F 2/ 9 2/110/ 9 BUOY 41025 1750 59 73 350/ 4/ 6 1022.8F 2/ 8 2/ 90/ 8 CAPE LOOKOUT NC 1700 58 40/ 5/ 6 1023.0F BUOY 41002 1750 72 72 210/ 12/ 14 1024.1F 3/ 9 2/ 60/ 9 BUOY 41010 NOT AVBL ST AUGUSTINE FL 1800 67 63 110/ 3/ 4 1024.5F $$

USA.gov is the U.S. government's official web portal to all federal, state and local government web resources and services.